• în Republica Moldova
  • Lista ţărilor
  • Pe 7 zile
  • Temperatura apei
  • Hartă satelitară
  • Meteo pe hartă
  • Widget-uri
  • user-avatar
    Intrare

    Meteo pe oră la Kaprun

    Astăzi, 13 Decembrie, Miercuri

    Timp Temperatura Precipitaţii Vânt Presiune Umiditate
    00:00 -10°C° 0,5 mm 2 m/s 591 mmHg 96%
    01:00 -9°C° 0 mm 1 m/s 591 mmHg 96%
    02:00 -10°C° 0,2 mm 1 m/s 591 mmHg 95%
    03:00 -12°C° 0,2 mm 2 m/s 591 mmHg 94%
    04:00 -13°C° 0,2 mm 2 m/s 591 mmHg 93%
    05:00 -11°C° 0,1 mm 1 m/s 591 mmHg 93%
    06:00 -12°C° 0,1 mm 1 m/s 591 mmHg 92%
    07:00 -12°C° 0 mm 1 m/s 591 mmHg 92%
    08:00 -11°C° 0,1 mm 1 m/s 591 mmHg 90%
    09:00 -10°C° 0,1 mm 1 m/s 591 mmHg 88%
    10:00 -9°C° 0,1 mm 1 m/s 592 mmHg 87%
    11:00 -8°C° 0 mm 1 m/s 592 mmHg 84%
    12:00 -7°C° 0 mm 1 m/s 592 mmHg 82%
    13:00 -6°C° 0 mm 1 m/s 592 mmHg 78%
    14:00 -7°C° 0 mm 1 m/s 591 mmHg 81%
    15:00 -8°C° 0 mm 2 m/s 590 mmHg 85%
    16:00 -9°C° 0 mm 2 m/s 589 mmHg 88%
    17:00 -10°C° 0 mm 2 m/s 589 mmHg 88%
    18:00 -10°C° 0 mm 2 m/s 588 mmHg 88%
    19:00 -12°C° 0 mm 2 m/s 588 mmHg 89%
    20:00 -13°C° 0 mm 3 m/s 587 mmHg 87%
    21:00 -13°C° 0 mm 3 m/s 587 mmHg 86%
    22:00 -13°C° 0 mm 3 m/s 586 mmHg 85%
    23:00 -12°C° 0 mm 3 m/s 586 mmHg 84%

    Mâine, 14 Decembrie, Joi

    Timp Temperatura Precipitaţii Vânt Presiune Umiditate
    00:00 -12°C° 0 mm 3 m/s 586 mmHg 83%
    01:00 -10°C° 0 mm 3 m/s 586 mmHg 83%
    02:00 -10°C° 0 mm 3 m/s 585 mmHg 81%
    03:00 -10°C° 0 mm 3 m/s 585 mmHg 80%
    04:00 -10°C° 0 mm 3 m/s 584 mmHg 79%
    05:00 -10°C° 0 mm 3 m/s 584 mmHg 79%
    06:00 -12°C° 0 mm 3 m/s 584 mmHg 80%
    07:00 -10°C° 0 mm 2 m/s 584 mmHg 80%
    08:00 -9°C° 0,1 mm 2 m/s 585 mmHg 82%
    09:00 -8°C° 0,1 mm 2 m/s 585 mmHg 84%
    10:00 -7°C° 0,1 mm 2 m/s 586 mmHg 86%
    11:00 -6°C° 0,3 mm 1 m/s 586 mmHg 87%
    12:00 -4°C° 0,3 mm 1 m/s 586 mmHg 89%
    13:00 -4°C° 0,3 mm 1 m/s 586 mmHg 91%
    14:00 -4°C° 0,4 mm 1 m/s 586 mmHg 92%
    15:00 -6°C° 0,4 mm 1 m/s 586 mmHg 94%
    16:00 -6°C° 0,4 mm 0 m/s 586 mmHg 95%
    17:00 -6°C° 0,2 mm 1 m/s 585 mmHg 94%
    18:00 -7°C° 0,2 mm 1 m/s 585 mmHg 93%
    19:00 -8°C° 0,2 mm 2 m/s 585 mmHg 93%
    20:00 -9°C° 0,2 mm 2 m/s 584 mmHg 93%
    21:00 -9°C° 0,2 mm 2 m/s 584 mmHg 93%
    22:00 -9°C° 0,2 mm 2 m/s 583 mmHg 94%
    23:00 -9°C° 0,1 mm 2 m/s 583 mmHg 93%

    Poimâine, 15 Decembrie, Vineri

    Timp Temperatura Precipitaţii Vânt Presiune Umiditate
    00:00 -9°C° 0,1 mm 2 m/s 582 mmHg 93%
    01:00 -10°C° 0,1 mm 3 m/s 581 mmHg 93%
    02:00 -10°C° 0,3 mm 3 m/s 581 mmHg 94%
    03:00 -9°C° 0,3 mm 2 m/s 581 mmHg 95%
    04:00 -9°C° 0,3 mm 2 m/s 580 mmHg 95%
    05:00 -9°C° 1,1 mm 2 m/s 581 mmHg 95%
    06:00 -8°C° 1,1 mm 2 m/s 582 mmHg 95%
    07:00 -8°C° 1,1 mm 2 m/s 582 mmHg 95%
    08:00 -7°C° 0,3 mm 1 m/s 583 mmHg 94%
    09:00 -7°C° 0,3 mm 1 m/s 583 mmHg 93%
    10:00 -7°C° 0,3 mm 1 m/s 583 mmHg 91%
    11:00 -6°C° 0 mm 1 m/s 584 mmHg 89%
    12:00 -4°C° 0 mm 1 m/s 584 mmHg 87%
    13:00 -4°C° 0 mm 1 m/s 584 mmHg 84%
    14:00 -6°C° 0 mm 1 m/s 583 mmHg 87%
    15:00 -7°C° 0 mm 1 m/s 583 mmHg 91%
    16:00 -8°C° 0 mm 1 m/s 582 mmHg 94%
    17:00 -8°C° 0,2 mm 1 m/s 583 mmHg 94%
    18:00 -9°C° 0,2 mm 1 m/s 583 mmHg 94%
    19:00 -10°C° 0,2 mm 2 m/s 583 mmHg 93%
    20:00 -10°C° 0,2 mm 2 m/s 583 mmHg 92%
    21:00 -10°C° 0,2 mm 1 m/s 583 mmHg 91%
    22:00 -10°C° 0,2 mm 1 m/s 583 mmHg 90%
    23:00 -10°C° 0,1 mm 1 m/s 584 mmHg 89%

    16 Decembrie, Sâmbătă

    Timp Temperatura Precipitaţii Vânt Presiune Umiditate
    00:00 -11°C° 0,1 mm 1 m/s 584 mmHg 89%
    01:00 -11°C° 0,1 mm 1 m/s 584 mmHg 89%
    02:00 -11°C° 0,1 mm 1 m/s 584 mmHg 89%
    03:00 -13°C° 0,1 mm 2 m/s 584 mmHg 89%
    04:00 -14°C° 0,1 mm 2 m/s 584 mmHg 89%
    05:00 -14°C° 0,1 mm 2 m/s 584 mmHg 89%
    06:00 -12°C° 0,1 mm 1 m/s 584 mmHg 89%
    07:00 -12°C° 0,1 mm 1 m/s 585 mmHg 89%
    08:00 -11°C° 0,1 mm 1 m/s 585 mmHg 88%
    09:00 -10°C° 0,1 mm 1 m/s 586 mmHg 88%
    10:00 -9°C° 0,1 mm 1 m/s 587 mmHg 87%
    11:00 -8°C° 0,1 mm 1 m/s 587 mmHg 87%
    12:00 -8°C° 0,1 mm 1 m/s 588 mmHg 87%
    13:00 -8°C° 0,1 mm 2 m/s 588 mmHg 87%
    14:00 -9°C° 0,2 mm 2 m/s 588 mmHg 89%
    15:00 -9°C° 0,2 mm 2 m/s 588 mmHg 92%
    16:00 -10°C° 0,2 mm 2 m/s 588 mmHg 94%
    17:00 -10°C° 0,3 mm 2 m/s 589 mmHg 94%
    18:00 -12°C° 0,3 mm 2 m/s 589 mmHg 95%
    19:00 -12°C° 0,3 mm 2 m/s 589 mmHg 95%
    20:00 -12°C° 0,3 mm 2 m/s 590 mmHg 95%
    21:00 -13°C° 0,3 mm 2 m/s 590 mmHg 95%
    22:00 -13°C° 0,3 mm 2 m/s 590 mmHg 95%
    23:00 -13°C° 0,2 mm 2 m/s 590 mmHg 95%

    17 Decembrie, Duminică

    Timp Temperatura Precipitaţii Vânt Presiune Umiditate
    00:00 -13°C° 0,2 mm 2 m/s 590 mmHg 95%
    01:00 -14°C° 0,2 mm 2 m/s 590 mmHg 95%
    02:00 -14°C° 0,4 mm 2 m/s 591 mmHg 95%
    03:00 -14°C° 0,4 mm 2 m/s 591 mmHg 95%
    04:00 -14°C° 0,4 mm 2 m/s 591 mmHg 95%
    05:00 -14°C° 0,3 mm 2 m/s 592 mmHg 95%
    06:00 -14°C° 0,3 mm 2 m/s 592 mmHg 95%
    07:00 -14°C° 0,3 mm 2 m/s 592 mmHg 95%
    08:00 -13°C° 0,4 mm 2 m/s 593 mmHg 94%
    09:00 -13°C° 0,4 mm 2 m/s 593 mmHg 93%
    10:00 -13°C° 0,4 mm 2 m/s 594 mmHg 92%
    11:00 -13°C° 0,3 mm 2 m/s 594 mmHg 91%
    12:00 -12°C° 0,3 mm 2 m/s 594 mmHg 89%
    13:00 -12°C° 0,3 mm 2 m/s 594 mmHg 88%
    14:00 -12°C° 0,3 mm 2 m/s 594 mmHg 89%
    15:00 -13°C° 0,3 mm 2 m/s 595 mmHg 91%
    16:00 -13°C° 0,3 mm 2 m/s 595 mmHg 92%
    17:00 -14°C° 0,5 mm 2 m/s 595 mmHg 93%
    18:00 -14°C° 0,5 mm 2 m/s 595 mmHg 93%
    19:00 -14°C° 0,5 mm 2 m/s 596 mmHg 94%
    20:00 -14°C° 0,5 mm 2 m/s 596 mmHg 94%
    21:00 -14°C° 0,5 mm 2 m/s 597 mmHg 94%
    22:00 -14°C° 0,5 mm 2 m/s 597 mmHg 94%
    23:00 -15°C° 0,3 mm 2 m/s 597 mmHg 93%

    18 Decembrie, Luni

    Timp Temperatura Precipitaţii Vânt Presiune Umiditate
    00:00 -16°C° 0,3 mm 2 m/s 597 mmHg 93%
    01:00 -16°C° 0,3 mm 2 m/s 596 mmHg 92%
    02:00 -17°C° 0,1 mm 2 m/s 596 mmHg 91%
    03:00 -17°C° 0,1 mm 2 m/s 596 mmHg 90%
    04:00 -18°C° 0,1 mm 2 m/s 595 mmHg 89%
    05:00 -18°C° 0 mm 2 m/s 596 mmHg 88%
    06:00 -18°C° 0 mm 2 m/s 596 mmHg 86%
    07:00 -18°C° 0 mm 2 m/s 596 mmHg 85%
    08:00 -17°C° 0,1 mm 2 m/s 596 mmHg 85%
    09:00 -15°C° 0,1 mm 2 m/s 597 mmHg 85%
    10:00 -14°C° 0,1 mm 2 m/s 598 mmHg 85%
    11:00 -13°C° 0,2 mm 2 m/s 598 mmHg 85%
    12:00 -9°C° 0,2 mm 1 m/s 598 mmHg 85%
    13:00 -8°C° 0,2 mm 1 m/s 598 mmHg 84%
    14:00 -8°C° 0,6 mm 1 m/s 597 mmHg 88%
    15:00 -9°C° 0,6 mm 1 m/s 597 mmHg 91%
    16:00 -9°C° 0,6 mm 1 m/s 596 mmHg 94%
    17:00 -9°C° 1,4 mm 1 m/s 596 mmHg 95%
    18:00 -8°C° 1,4 mm 1 m/s 596 mmHg 96%
    19:00 -8°C° 1,4 mm 1 m/s 596 mmHg 96%
    20:00 -8°C° 1,4 mm 1 m/s 597 mmHg 97%
    21:00 -9°C° 1,4 mm 2 m/s 597 mmHg 97%
    22:00 -9°C° 1,4 mm 2 m/s 597 mmHg 97%
    23:00 -9°C° 0,6 mm 2 m/s 597 mmHg 96%
    Arată mai mult